Voltar ao catálogo

LEMUR 2 PETERG

AtivoCiênciaSSO
NORAD 42841·PAYLOAD·🇺🇸 United States

Lançado Jul 14, 2017 de Baikonur Cosmodrome

Loading…

Próximas Passagens (próximas 24 horas)

TLE

AtualizadoSource: Space-Track

Época: Sep 14, 2026, 07:19 UTC

1 42841U 17042S   26257.30528133  .00017075  00000-0  46710-3 0  9991
2 42841  97.4007  82.7336 0004138  35.4496 324.7023 15.37419376502110

Acompanhe LEMUR 2 PETERG em tempo real com AllMySat

Download on the App Store